TimeEST,TemperatureF,Dew PointF,Humidity,Sea Level PressureIn,VisibilityMPH,Wind Direction,Wind SpeedMPH,Gust SpeedMPH,PrecipitationIn,Events,Conditions,WindDirDegrees,DateUTC
12:53 AM,60.8,57.2,88,30.20,3.0,Calm,Calm,-,N/A,,Clear,0,2012-01-01 05:53:00
1:53 AM,60.1,57.9,93,30.19,4.0,Calm,Calm,-,N/A,,Clear,0,2012-01-01 06:53:00
2:20 AM,60.8,57.2,88,30.19,2.5,Calm,Calm,-,N/A,,Clear,0,2012-01-01 07:20:00
2:46 AM,59.0,57.2,94,30.18,3.0,Calm,Calm,-,N/A,,Clear,0,2012-01-01 07:46:00
2:53 AM,59.0,55.9,90,30.18,3.0,Calm,Calm,-,N/A,,Clear,0,2012-01-01 07:53:00
3:53 AM,59.0,57.0,93,30.18,3.0,Calm,Calm,-,N/A,,Clear,0,2012-01-01 08:53:00
4:53 AM,57.9,55.9,93,30.18,2.5,NNE,3.5,-,N/A,,Clear,30,2012-01-01 09:53:00
5:53 AM,57.9,57.0,97,30.20,7.0,Calm,Calm,-,N/A,,Clear,0,2012-01-01 10:53:00
6:53 AM,57.9,55.9,93,30.22,6.0,Calm,Calm,-,N/A,,Clear,0,2012-01-01 11:53:00
7:53 AM,57.9,57.0,97,30.24,7.0,Calm,Calm,-,N/A,,Clear,0,2012-01-01 12:53:00
8:53 AM,64.9,60.1,84,30.26,9.0,NE,3.5,-,N/A,,Clear,50,2012-01-01 13:53:00
9:53 AM,71.1,62.1,73,30.28,10.0,Calm,Calm,-,N/A,,Clear,0,2012-01-01 14:53:00
10:53 AM,75.0,63.0,66,30.27,10.0,SE,3.5,-,N/A,,Partly Cloudy,130,2012-01-01 15:53:00
11:53 AM,78.1,60.1,54,30.25,10.0,East,3.5,-,N/A,,Scattered Clouds,80,2012-01-01 16:53:00
12:53 PM,75.9,63.0,64,30.21,10.0,West,8.1,-,N/A,,Partly Cloudy,280,2012-01-01 17:53:00
1:53 PM,75.0,62.1,64,30.19,10.0,WSW,8.1,-,N/A,,Clear,250,2012-01-01 18:53:00
2:53 PM,75.0,63.0,66,30.18,10.0,West,8.1,-,N/A,,Clear,280,2012-01-01 19:53:00
3:53 PM,75.0,63.0,66,30.17,10.0,WNW,8.1,-,N/A,,Clear,290,2012-01-01 20:53:00
4:53 PM,73.0,63.0,71,30.18,10.0,WNW,9.2,-,N/A,,Clear,290,2012-01-01 21:53:00
5:53 PM,70.0,64.0,81,30.18,10.0,WNW,4.6,-,N/A,,Clear,290,2012-01-01 22:53:00
6:53 PM,69.1,64.9,87,30.19,10.0,Calm,Calm,-,N/A,,Clear,0,2012-01-01 23:53:00
7:53 PM,68.0,64.9,90,30.21,10.0,WNW,3.5,-,N/A,,Clear,300,2012-01-02 00:53:00
8:53 PM,69.1,64.0,84,30.22,10.0,NW,6.9,-,N/A,,Clear,320,2012-01-02 01:53:00
9:53 PM,66.9,63.0,87,30.22,10.0,Calm,Calm,-,N/A,,Clear,0,2012-01-02 02:53:00
10:53 PM,64.0,61.0,90,30.22,10.0,Calm,Calm,-,N/A,,Clear,0,2012-01-02 03:53:00
11:53 PM,64.0,61.0,90,30.20,8.0,Calm,Calm,-,N/A,,Clear,0,2012-01-02 04:53:00